N1YZ Weather Reports


time (UTC)temp
C
wind
direction
speed
KPH
gust
KPH
rain 1hr
cm
rain 24hr
cm
rain mn
cm
humidity
%
barometer
mb
20260903143538 31 311 0.0 0.0 0.00 0.00 0.00 72 1037.0
20260903143033 31 326 0.0 0.0 0.00 0.00 0.00 73 1037.0
20260903142528 30 10 0.0 0.0 0.00 0.00 0.00 73 1036.8
20260903142026 30 5 0.0 0.0 0.00 0.00 0.00 75 1036.9
20260903141521 30 355 0.0 0.0 0.00 0.00 0.00 76 1037.0
20260903141016 29 332 0.0 0.0 0.00 0.00 0.00 77 1036.7
20260903140511 28 334 0.0 0.0 0.00 0.00 0.00 82 1036.8
20260903140007 28 333 0.0 0.0 0.00 0.00 0.00 82 1037.0
20260903135502 28 343 0.0 0.0 0.00 0.00 0.00 83 1036.9
20260903134956 28 333 0.0 0.0 0.00 0.00 0.00 84 1037.0
20260903134455 28 302 0.0 0.0 0.00 0.00 0.00 85 1037.1
20260903133953 27 336 0.0 0.0 0.00 0.00 0.00 85 1036.8
20260903133449 27 351 0.0 0.0 0.00 0.00 0.00 87 1037.1
20260903132944 27 330 0.0 0.0 0.00 0.00 0.00 88 1037.2
20260903132440 27 319 0.0 0.0 0.00 0.00 0.00 88 1037.1
20260903131939 26 26 0.0 0.0 0.00 0.00 0.00 88 1037.1
20260903131435 26 327 0.0 0.0 0.00 0.00 0.00 90 1037.1
20260903130933 26 336 0.0 0.0 0.00 0.00 0.00 91 1037.0
20260903130429 26 349 0.0 0.0 0.00 0.00 0.00 91 1036.9
20260903125927 26 328 0.0 0.0 0.00 0.00 0.00 92 1037.1
20260903125422 25 328 0.0 0.0 0.00 0.00 0.00 92 1036.9
20260903124921 25 326 0.0 0.0 0.00 0.00 0.00 92 1036.8
20260903124416 25 336 0.0 0.0 0.00 0.00 0.00 93 1036.9
20260903123915 25 337 0.0 0.0 0.00 0.00 0.00 94 1036.8
20260903123410 25 317 0.0 0.0 0.00 0.00 0.00 96 1036.9
20260903122909 25 310 0.0 0.0 0.00 0.00 0.00 96 1036.9
20260903122404 25 335 0.0 0.0 0.00 0.00 0.00 96 1036.9
20260903121902 25 330 0.0 0.0 0.00 0.00 0.00 97 1036.9
20260903121358 25 307 0.0 0.0 0.00 0.00 0.00 97 1036.6
20260903120854 24 336 0.0 0.0 0.00 0.00 0.00 97 1036.8
20260903120352 24 337 0.0 0.0 0.00 0.00 0.00 97 1037.0
20260903115851 24 338 0.0 0.0 0.00 0.00 0.00 97 1036.9
20260903115345 24 339 0.0 0.0 0.00 0.00 0.00 97 1036.8
20260903114840 24 340 0.0 0.0 0.00 0.00 0.00 97 1037.0
20260903114336 24 340 0.0 0.0 0.00 0.00 0.00 97 1036.9
20260903113831 24 340 0.0 0.0 0.00 0.00 0.00 97 1036.7
20260903113327 24 340 0.0 0.0 0.00 0.00 0.00 97 1036.7
20260903112822 24 341 0.0 0.0 0.00 0.00 0.00 97 1036.6
20260903112313 24 339 0.0 0.0 0.00 0.00 0.00 97 1036.6
20260903111811 24 332 0.0 0.0 0.00 0.00 0.00 97 1036.6
20260903111306 24 331 0.0 0.0 0.00 0.00 0.00 96 1036.5
20260903110802 24 328 0.0 0.0 0.00 0.00 0.00 96 1036.2
20260903110258 24 287 0.0 0.0 0.00 0.00 0.00 96 1036.3
20260903105757 25 337 0.0 0.0 0.00 0.00 0.00 95 1036.3
20260903105252 24 338 0.0 0.0 0.00 0.00 0.00 95 1036.2
20260903104752 24 343 0.0 0.0 0.00 0.00 0.00 95 1036.2
20260903104247 25 343 0.0 0.0 0.00 0.00 0.00 95 1036.2
20260903103743 25 343 0.0 0.0 0.00 0.00 0.00 95 1036.2
20260903103240 25 343 0.0 0.0 0.00 0.00 0.00 95 1036.2
20260903102735 25 342 0.0 0.0 0.00 0.00 0.00 95 1036.1
20260903102229 25 342 0.0 0.0 0.00 0.00 0.00 95 1036.1
20260903101727 25 342 0.0 0.0 0.00 0.00 0.00 95 1036.1
20260903101223 25 321 0.0 0.0 0.00 0.00 0.00 95 1036.1
20260903100718 25 346 0.0 0.0 0.00 0.00 0.00 95 1036.1
20260903100218 25 347 0.0 0.0 0.00 0.00 0.00 95 1036.0
20260903095715 25 346 0.0 0.0 0.00 0.00 0.00 95 1036.1
20260903095211 25 346 0.0 0.0 0.00 0.00 0.00 95 1036.2
20260903094705 25 7 0.0 0.0 0.00 0.00 0.00 95 1036.2
20260903094201 25 350 0.0 0.0 0.00 0.00 0.00 95 1036.2
20260903093655 25 346 0.0 0.0 0.00 0.00 0.00 95 1036.2
20260903093151 25 274 0.0 0.0 0.00 0.00 0.00 95 1036.3
20260903092645 25 10 0.0 0.0 0.00 0.00 0.00 95 1035.9
20260903092139 25 10 0.0 0.0 0.00 0.00 0.00 95 1036.0
20260903091638 25 10 0.0 0.0 0.00 0.00 0.00 95 1035.9
20260903091132 25 10 0.0 0.0 0.00 0.00 0.00 94 1036.2
20260903090628 25 10 0.0 0.0 0.00 0.00 0.00 94 1035.8
20260903090127 25 10 0.0 0.0 0.00 0.00 0.00 94 1035.8
20260903085626 25 10 0.0 0.0 0.00 0.00 0.00 93 1036.1
20260903085122 25 10 0.0 0.0 0.00 0.00 0.00 93 1035.9
20260903084619 25 348 0.0 0.0 0.00 0.00 0.00 93 1036.1
20260903084114 25 345 0.0 0.0 0.00 0.00 0.00 93 1036.2
20260903083610 25 343 0.0 0.0 0.00 0.00 0.00 93 1036.1
20260903083110 25 346 0.0 0.0 0.00 0.00 0.00 93 1036.3
20260903082604 25 346 0.0 0.0 0.00 0.00 0.00 93 1035.8
20260903082100 25 346 0.0 0.0 0.00 0.00 0.00 93 1035.9
20260903081555 25 347 0.0 0.0 0.00 0.00 0.00 93 1036.1
20260903081050 25 346 0.0 0.0 0.00 0.00 0.00 92 1035.9
20260903080547 25 346 0.0 0.0 0.00 0.00 0.00 92 1036.2
20260903080044 25 347 0.0 0.0 0.00 0.00 0.00 92 1036.0
20260903075544 25 348 0.0 0.0 0.00 0.00 0.00 92 1036.0
20260903075040 25 348 0.0 0.0 0.00 0.00 0.00 91 1035.9
20260903074538 25 348 0.0 0.0 0.00 0.00 0.00 91 1036.0
20260903074033 25 348 0.0 0.0 0.00 0.00 0.00 91 1036.0
20260903073528 25 347 0.0 0.0 0.00 0.00 0.00 91 1036.0
20260903073025 25 347 0.0 0.0 0.00 0.00 0.00 91 1036.0
20260903072520 25 347 0.0 0.0 0.00 0.00 0.00 91 1035.9
20260903072016 25 352 0.0 0.0 0.00 0.00 0.00 91 1036.0
20260903071513 25 352 0.0 0.0 0.00 0.00 0.00 91 1036.0
20260903071013 25 352 0.0 0.0 0.00 0.00 0.00 90 1035.8
20260903070513 25 352 0.0 0.0 0.00 0.00 0.00 90 1036.0
20260903070008 25 352 0.0 0.0 0.00 0.00 0.00 90 1036.0
20260903065503 25 352 0.0 0.0 0.00 0.00 0.00 90 1036.0
20260903065001 25 352 0.0 0.0 0.00 0.00 0.00 90 1035.8
20260903064456 25 352 0.0 0.0 0.00 0.00 0.00 90 1036.1
20260903063952 25 352 0.0 0.0 0.00 0.00 0.00 90 1036.1
20260903063447 25 352 0.0 0.0 0.00 0.00 0.00 90 1036.1
20260903062942 25 352 0.0 0.0 0.00 0.00 0.00 90 1036.2
20260903062437 25 352 0.0 0.0 0.00 0.00 0.00 89 1036.3
20260903061932 26 352 0.0 0.0 0.00 0.00 0.00 89 1036.3
20260903061432 26 352 0.0 0.0 0.00 0.00 0.00 89 1036.4
20260903060927 26 352 0.0 0.0 0.00 0.00 0.00 89 1036.3
20260903060422 26 351 0.0 0.0 0.00 0.00 0.00 88 1036.3
20260903055921 26 353 0.0 0.0 0.00 0.00 0.00 88 1036.1
20260903055419 26 353 0.0 0.0 0.00 0.00 0.00 88 1036.2
20260903054913 26 353 0.0 0.0 0.00 0.00 0.00 87 1036.1
20260903054408 26 353 0.0 0.0 0.00 0.00 0.00 87 1036.1
20260903053904 26 353 0.0 0.0 0.00 0.00 0.00 87 1036.1
20260903053359 26 352 0.0 0.0 0.00 0.00 0.00 86 1036.3
20260903052855 26 352 0.0 0.0 0.00 0.00 0.00 86 1036.4
20260903052350 26 349 0.0 0.0 0.00 0.00 0.00 86 1036.3
20260903051846 26 288 0.0 0.0 0.00 0.00 0.00 86 1036.3
20260903051341 26 305 0.0 0.0 0.00 0.00 0.00 86 1036.1
20260903050837 26 324 0.0 0.0 0.00 0.00 0.00 86 1036.3
20260903050335 26 298 0.0 1.6 0.00 0.00 0.00 86 1036.1
20260903045830 26 3 0.0 0.0 0.00 0.00 0.00 85 1036.1
20260903045326 26 19 0.0 0.0 0.00 0.00 0.00 85 1036.2
20260903044823 26 19 0.0 0.0 0.00 0.00 0.00 85 1036.2
20260903044318 26 19 0.0 0.0 0.00 0.00 0.00 85 1036.1
20260903043814 27 20 0.0 0.0 0.00 0.00 0.00 84 1036.0
20260903043314 27 20 0.0 0.0 0.00 0.00 0.00 83 1036.0
20260903042813 27 20 0.0 0.0 0.00 0.00 0.00 82 1036.1
20260903042308 27 20 0.0 0.0 0.00 0.00 0.00 82 1036.0
20260903041804 27 333 0.0 0.0 0.00 0.00 0.00 83 1036.1
20260903041301 27 10 0.0 0.0 0.00 0.00 0.00 83 1036.1
20260903040801 27 10 0.0 0.0 0.00 0.00 0.00 82 1036.3
20260903040300 27 10 0.0 0.0 0.00 0.00 0.00 82 1036.1
20260903035756 27 9 0.0 0.0 0.00 0.00 0.00 81 1036.5
20260903035252 27 10 0.0 0.0 0.00 0.00 0.00 81 1036.2
20260903034747 27 10 0.0 0.0 0.00 0.00 0.00 80 1036.2
20260903034242 27 10 0.0 0.0 0.00 0.00 0.00 80 1036.3
20260903033737 27 10 0.0 0.0 0.00 0.00 0.00 79 1036.3
20260903033232 27 10 0.0 0.0 0.00 0.00 0.00 78 1036.2
20260903032726 28 10 0.0 0.0 0.00 0.00 0.00 78 1036.0
20260903032222 28 10 0.0 0.0 0.00 0.00 0.00 76 1036.4
20260903031718 28 11 0.0 0.0 0.00 0.00 0.00 75 1036.4
20260903031211 28 2 0.0 0.0 0.00 0.00 0.00 74 1036.2
20260903030708 28 339 0.0 0.0 0.00 0.00 0.00 74 1036.3
20260903030203 28 322 0.0 0.0 0.00 0.00 0.00 75 1036.1
20260903025658 28 302 0.0 0.0 0.00 0.00 0.00 75 1036.3
20260903025154 28 329 0.0 0.0 0.00 0.00 0.00 76 1036.3
20260903024649 28 259 0.0 0.0 0.00 0.00 0.00 76 1036.0
20260903024148 29 272 1.6 1.6 0.00 0.00 0.00 73 1036.1
20260903023644 29 347 0.0 0.0 0.00 0.00 0.00 71 1036.1
20260903023143 29 353 0.0 0.0 0.00 0.00 0.00 72 1036.1
20260903022638 29 353 0.0 0.0 0.00 0.00 0.00 72 1036.1
20260903022138 29 353 0.0 0.0 0.00 0.00 0.00 72 1036.2
20260903021638 29 353 0.0 0.0 0.00 0.00 0.00 71 1036.1
20260903021132 29 353 0.0 0.0 0.00 0.00 0.00 71 1036.3
20260903020627 29 353 0.0 0.0 0.00 0.00 0.00 71 1035.9
20260903020122 29 353 0.0 0.0 0.00 0.00 0.00 71 1036.1
20260903015617 29 353 0.0 0.0 0.00 0.00 0.00 70 1036.1
20260903015112 29 354 0.0 0.0 0.00 0.00 0.00 71 1036.0
20260903014607 29 354 0.0 0.0 0.00 0.00 0.00 70 1036.1
20260903014106 30 354 0.0 0.0 0.00 0.00 0.00 70 1035.7
20260903013601 30 354 0.0 0.0 0.00 0.00 0.00 70 1035.5
20260903013056 30 354 0.0 0.0 0.00 0.00 0.00 69 1035.8
20260903012555 30 354 0.0 0.0 0.00 0.00 0.00 69 1035.7
20260903012049 30 354 0.0 0.0 0.00 0.00 0.00 69 1035.6
20260903011548 30 354 0.0 0.0 0.00 0.00 0.00 69 1035.5
20260903011038 30 354 0.0 0.0 0.00 0.00 0.00 69 1035.7
20260903010533 30 354 0.0 0.0 0.00 0.00 0.00 69 1035.7
20260903010032 30 354 0.0 0.0 0.00 0.00 0.00 68 1035.3
20260903005532 30 354 0.0 0.0 0.00 0.00 0.00 68 1035.4
20260903005027 30 354 0.0 0.0 0.00 0.00 0.00 68 1035.3
20260903004527 30 354 0.0 0.0 0.00 0.00 0.00 67 1035.3
20260903004023 30 355 0.0 0.0 0.00 0.00 0.00 67 1035.2
20260903003518 30 355 0.0 0.0 0.00 0.00 0.00 66 1035.3
20260903003013 31 355 0.0 0.0 0.00 0.00 0.00 66 1035.4
20260903002513 31 355 0.0 0.0 0.00 0.00 0.00 65 1035.4
20260903002007 31 355 0.0 0.0 0.00 0.00 0.00 64 1035.1
20260903001502 31 355 0.0 0.0 0.00 0.00 0.00 63 1035.5
20260903000956 31 355 0.0 0.0 0.00 0.00 0.00 63 1035.4
20260903000454 31 355 0.0 0.0 0.00 0.00 0.00 62 1035.4
20260902235950 32 6 0.0 0.0 0.00 0.00 0.00 61 1035.6
20260902235444 32 5 0.0 0.0 0.00 0.00 0.00 60 1035.3
20260902234938 32 5 0.0 0.0 0.00 0.00 0.00 58 1035.4
20260902234433 32 7 0.0 0.0 0.00 0.00 0.00 58 1035.3
20260902233927 32 352 0.0 0.0 0.00 0.00 0.00 57 1035.4
20260902233421 32 323 0.0 0.0 0.00 0.00 0.00 58 1035.2
20260902232920 32 354 0.0 0.0 0.00 0.00 0.00 57 1035.0
20260902232415 32 355 0.0 0.0 0.00 0.00 0.00 57 1035.2
20260902231915 33 2 0.0 0.0 0.00 0.00 0.00 57 1035.1
20260902231410 33 0 0.0 0.0 0.00 0.00 0.00 57 1035.3
20260902230905 33 1 0.0 0.0 0.00 0.00 0.00 56 1035.3
20260902230404 33 26 0.0 0.0 0.00 0.00 0.00 55 1035.1
20260902225858 33 17 0.0 0.0 0.00 0.00 0.00 55 1035.1
20260902225353 33 21 0.0 0.0 0.00 0.00 0.00 56 1035.0
20260902224852 33 353 0.0 0.0 0.00 0.00 0.00 57 1035.1
20260902224347 33 13 0.0 0.0 0.00 0.00 0.00 58 1035.3
20260902223844 33 11 0.0 0.0 0.00 0.00 0.00 58 1035.1
20260902223343 33 27 0.0 0.0 0.00 0.00 0.00 59 1035.2
20260902222837 33 12 0.0 0.0 0.00 0.00 0.00 58 1035.4
20260902222336 33 291 0.0 0.0 0.00 0.00 0.00 57 1035.5
20260902221831 33 32 0.0 0.0 0.00 0.00 0.00 56 1035.2
20260902221330 33 358 0.0 0.0 0.00 0.00 0.00 56 1035.5
20260902220826 33 6 0.0 0.0 0.00 0.00 0.00 55 1035.4
20260902220325 33 33 0.0 0.0 0.00 0.00 0.00 54 1035.2
20260902215820 33 2 0.0 0.0 0.00 0.00 0.00 53 1035.2
20260902215315 33 3 0.0 0.0 0.00 0.00 0.00 53 1035.4
20260902214811 33 25 0.0 1.6 0.00 0.00 0.00 53 1035.2
20260902214310 34 359 0.0 0.0 0.00 0.00 0.00 54 1035.4
20260902213806 35 73 1.6 1.6 0.00 0.00 0.00 49 1035.1
20260902213300 34 20 0.0 1.6 0.00 0.00 0.00 51 1035.6
20260902212759 34 14 0.0 0.0 0.00 0.00 0.00 52 1035.3
20260902212256 34 5 1.6 1.6 0.00 0.00 0.00 53 1035.3
20260902211751 34 16 0.0 0.0 0.00 0.00 0.00 52 1035.4
20260902211247 33 7 0.0 0.0 0.00 0.00 0.00 51 1035.2
20260902210742 34 18 0.0 0.0 0.00 0.00 0.00 53 1035.3
20260902210237 34 20 0.0 0.0 0.00 0.00 0.00 50 1035.4
20260902205735 34 32 0.0 0.0 0.00 0.00 0.00 47 1035.6
20260902205230 35 30 0.0 0.0 0.00 0.00 0.00 50 1035.5
20260902204726 35 20 0.0 0.0 0.00 0.00 0.00 48 1035.7
20260902204221 35 44 0.0 1.6 0.00 0.00 0.00 46 1035.7
20260902203716 35 355 0.0 0.0 0.00 0.00 0.00 49 1035.5
20260902203215 35 21 0.0 0.0 0.00 0.00 0.00 50 1035.6
20260902202710 35 69 0.0 0.0 0.00 0.00 0.00 49 1035.7
20260902202207 35 352 0.0 1.6 0.00 0.00 0.00 53 1035.8
20260902201703 35 23 0.0 0.0 0.00 0.00 0.00 55 1035.9
20260902201202 35 339 0.0 0.0 0.00 0.00 0.00 50 1035.9
20260902200652 35 1 0.0 1.6 0.00 0.00 0.00 50 1035.9
20260902200147 35 18 0.0 0.0 0.00 0.00 0.00 49 1035.7
20260902195642 35 24 0.0 0.0 0.00 0.00 0.00 49 1036.0
20260902195137 35 31 0.0 0.0 0.00 0.00 0.00 47 1036.1
20260902194635 35 340 1.6 3.2 0.00 0.00 0.00 52 1036.1
20260902194131 35 109 0.0 1.6 0.00 0.00 0.00 48 1036.2
20260902193626 35 9 0.0 0.0 0.00 0.00 0.00 50 1036.5
20260902193121 35 23 0.0 0.0 0.00 0.00 0.00 52 1036.2
20260902192620 35 24 1.6 1.6 0.00 0.00 0.00 53 1036.4
20260902192118 35 35 0.0 0.0 0.00 0.00 0.00 51 1036.6
20260902191613 35 356 0.0 0.0 0.00 0.00 0.00 55 1036.7
20260902191108 35 182 3.2 4.8 0.00 0.00 0.00 53 1036.8
20260902190604 35 225 1.6 1.6 0.00 0.00 0.00 51 1036.9
20260902190059 36 351 1.6 3.2 0.00 0.00 0.00 53 1036.7
20260902185554 35 11 0.0 0.0 0.00 0.00 0.00 52 1036.8
20260902185050 35 32 0.0 0.0 0.00 0.00 0.00 51 1036.8
20260902184544 34 18 0.0 0.0 0.00 0.00 0.00 55 1037.0
20260902184039 35 27 0.0 1.6 0.00 0.00 0.00 54 1037.1
20260902183531 35 337 1.6 3.2 0.00 0.00 0.00 53 1037.1
20260902183027 34 13 0.0 0.0 0.00 0.00 0.00 55 1037.5
20260902182523 35 5 1.6 1.6 0.00 0.00 0.00 52 1037.5
20260902182019 35 19 0.0 0.0 0.00 0.00 0.00 53 1037.4
20260902181514 33 23 0.0 0.0 0.00 0.00 0.00 55 1037.5
20260902181008 33 26 1.6 3.2 0.00 0.00 0.00 57 1037.5
20260902180503 35 2 0.0 0.0 0.00 0.00 0.00 56 1037.4
20260902175959 35 22 0.0 1.6 0.00 0.00 0.00 56 1037.3
20260902175459 35 357 3.2 3.2 0.00 0.00 0.00 52 1037.5
20260902174954 35 13 0.0 0.0 0.00 0.00 0.00 55 1037.6
20260902174451 34 7 0.0 0.0 0.00 0.00 0.00 56 1037.6
20260902173946 33 24 0.0 0.0 0.00 0.00 0.00 56 1037.7
20260902173446 34 58 1.6 1.6 0.00 0.00 0.00 55 1037.7
20260902172941 34 354 0.0 1.6 0.00 0.00 0.00 54 1037.9
20260902172440 35 0 0.0 0.0 0.00 0.00 0.00 56 1038.1
20260902171935 34 1 0.0 0.0 0.00 0.00 0.00 54 1038.1
20260902171431 35 70 1.6 1.6 0.00 0.00 0.00 53 1038.0
20260902170927 35 180 3.2 3.2 0.00 0.00 0.00 54 1038.3
20260902170422 34 18 0.0 0.0 0.00 0.00 0.00 54 1038.3
20260902165917 34 331 0.0 0.0 0.00 0.00 0.00 54 1038.4
20260902165417 34 5 0.0 0.0 0.00 0.00 0.00 56 1038.6
20260902164912 33 27 0.0 0.0 0.00 0.00 0.00 56 1038.5
20260902164406 33 77 1.6 1.6 0.00 0.00 0.00 56 1038.7
20260902163906 33 13 0.0 0.0 0.00 0.00 0.00 60 1038.5
20260902163401 33 8 1.6 3.2 0.00 0.00 0.00 58 1038.6
20260902162859 33 0 0.0 0.0 0.00 0.00 0.00 57 1038.7
20260902162354 33 6 0.0 0.0 0.00 0.00 0.00 61 1038.6
20260902161854 33 329 0.0 1.6 0.00 0.00 0.00 57 1038.8
20260902161349 33 46 0.0 0.0 0.00 0.00 0.00 57 1038.8
20260902160846 32 168 1.6 1.6 0.00 0.00 0.00 60 1038.9
20260902160341 32 13 0.0 0.0 0.00 0.00 0.00 61 1039.0
20260902155839 32 359 0.0 0.0 0.00 0.00 0.00 61 1039.1
20260902155338 32 351 0.0 0.0 0.00 0.00 0.00 57 1039.2
20260902154833 33 25 0.0 0.0 0.00 0.00 0.00 58 1039.1
20260902154329 33 5 0.0 0.0 0.00 0.00 0.00 59 1039.3
20260902153827 32 16 0.0 0.0 0.00 0.00 0.00 59 1039.3
20260902153327 32 245 0.0 0.0 0.00 0.00 0.00 58 1039.2
20260902152823 32 17 0.0 0.0 0.00 0.00 0.00 61 1038.9
20260902152319 32 208 0.0 0.0 0.00 0.00 0.00 63 1039.1
20260902151814 32 24 0.0 0.0 0.00 0.00 0.00 66 1039.1
20260902151309 31 23 0.0 0.0 0.00 0.00 0.00 67 1039.1
20260902150803 31 34 0.0 0.0 0.00 0.00 0.00 67 1039.3
20260902150300 31 280 0.0 0.0 0.00 0.00 0.00 70 1039.0
20260902145759 31 305 0.0 0.0 0.00 0.00 0.00 70 1039.1
20260902145254 31 1 0.0 0.0 0.00 0.00 0.00 71 1039.2
20260902144750 31 334 0.0 0.0 0.00 0.00 0.00 70 1039.1
20260902144246 32 347 0.0 0.0 0.00 0.00 0.00 70 1039.0